Wind_Speed
32 31 30 29 29 28 28 28 29 29 29 26 24 22 20 19 17 17 16 14 14 13 13 13 14 13 13 14 13 13 13 12 12 13 13 13 13 14 14 14 14 14 15 16
34 33 33 31 30 30 31 30 30 30 30 27 25 25 24 22 21 19 18 17 16 15 15 15 14 15 15 15 15 15 15 15 14 14 15 15 15 15 16 16 16 17 17 17
36 35 35 35 33 33 33 33 32 32 31 29 28 26 26 25 24 22 19 19 19 19 19 18 17 16 16 16 16 16 16 16 16 17 17 17 17 17 17 17 18 18 19 20
37 36 38 36 33 34 35 34 33 33 32 31 30 29 28 27 27 24 23 22 22 22 22 21 20 19 18 18 18 18 18 18 18 18 18 18 18 18 19 19 20 20 21 21
39 39 38 36 35 36 36 36 35 35 33 32 32 33 32 29 28 27 27 26 25 24 24 24 22 21 21 20 21 20 20 20 20 20 20 19 19 20 20 21 22 22 22 22
40 40 40 37 36 37 38 38 37 36 36 34 35 35 32 30 30 30 29 28 27 26 27 26 24 23 23 22 23 23 22 22 22 22 22 21 21 21 21 23 23 23 24 23
39 40 40 37 36 36 38 39 37 38 38 37 36 35 34 33 33 32 32 31 29 28 28 27 27 26 25 24 24 25 25 25 24 24 24 23 23 23 23 24 24 24 25 24
40 40 39 38 37 37 38 38 38 38 39 38 36 35 36 35 34 34 34 33 32 31 29 29 29 28 28 27 27 27 27 27 26 26 26 25 25 25 25 25 26 25 25 25
40 40 39 38 38 38 38 38 37 38 38 38 37 36 37 36 35 35 35 34 34 33 31 30 30 30 30 30 29 29 29 29 28 28 28 27 27 27 27 27 27 26 25 25
40 39 39 39 38 39 38 38 38 38 36 35 36 35 36 36 36 36 36 35 35 34 34 33 32 32 32 32 31 31 31 31 30 30 29 28 29 29 28 28 28 27 26 26
40 40 40 40 39 39 38 38 38 39 38 36 35 36 36 36 35 36 36 36 36 35 34 34 34 33 33 33 32 32 33 32 32 32 30 29 29 29 29 28 27 27 28 28
39 40 41 40 40 39 39 39 39 39 40 38 36 37 36 37 36 36 36 35 35 35 35 35 34 34 34 33 34 34 34 34 33 32 32 31 31 30 30 30 29 29 29 30
40 40 41 41 39 38 38 38 38 38 38 37 36 37 38 37 37 36 36 36 35 36 36 35 35 35 35 35 35 35 35 35 34 34 33 32 32 31 31 31 31 31 31 32
40 39 39 39 37 37 37 37 37 37 36 37 37 37 38 38 38 37 36 36 36 36 36 36 36 36 36 35 35 36 36 36 36 36 35 34 33 33 32 32 32 32 33 33
36 37 36 37 37 37 37 36 37 38 37 35 36 37 37 37 37 37 37 37 37 37 37 37 37 36 36 36 36 36 36 36 36 36 36 35 34 34 34 34 33 33 34 34
32 34 35 34 35 36 37 37 38 37 36 34 33 34 36 36 36 35 36 36 36 36 36 36 36 37 37 37 36 36 36 36 36 36 36 36 36 35 35 35 35 35 34 34
29 30 31 31 32 34 35 36 35 35 34 32 32 32 33 34 35 34 35 35 35 35 36 36 36 36 36 36 36 36 36 35 36 36 35 34 35 36 35 35 35 36 36 35
27 27 28 28 29 30 32 31 32 34 35 34 30 30 31 32 33 33 32 33 34 35 35 35 35 35 36 36 36 36 34 34 33 33 33 33 33 35 35 34 33 34 34 35
24 25 26 26 26 26 27 28 29 31 33 33 31 31 31 31 32 33 33 32 32 33 34 34 34 34 34 34 34 34 34 34 33 33 33 33 35 35 35 35 34 33 33 33
20 20 22 24 24 25 25 25 26 28 30 31 30 30 31 30 31 30 30 31 32 33 33 33 33 32 32 33 33 33 33 33 33 33 33 34 33 33 34 33 32 32 33 33
18 18 18 20 21 22 23 23 24 26 27 28 29 28 29 29 30 30 30 30 30 30 31 31 31 31 32 32 32 32 32 33 33 33 33 33 34 34 34 34 33 33 33 33
16 17 16 17 18 18 19 21 22 24 25 26 26 25 26 27 28 28 28 28 29 29 29 29 30 30 31 31 31 31 31 32 32 32 33 34 34 34 34 34 33 33 33 33
14 15 17 17 18 18 18 19 20 21 22 23 23 24 24 24 25 25 25 26 27 27 27 28 28 28 28 29 29 30 31 32 32 31 32 32 32 32 32 32 32 32 32 31
15 14 15 15 16 16 16 17 18 19 19 20 20 21 22 22 22 23 24 24 24 24 24 24 25 25 26 27 28 28 29 28 28 28 29 30 30 30 30 31 31 31 30 30
12 13 13 14 14 14 15 15 15 16 17 18 19 20 20 21 22 22 22 22 22 22 22 23 24 24 25 26 26 27 27 27 27 27 28 29 29 30 30 30 29 29 29 29
10 10 11 11 12 13 13 13 14 14 14 15 16 17 17 17 18 19 19 20 21 21 22 22 23 23 23 23 24 25 26 26 27 27 27 27 28 28 28 28 27 28 28 28
7 8 9 9 10 10 10 11 11 11 11 12 13 14 15 15 16 17 17 17 18 19 20 21 21 21 21 21 22 22 23 24 24 25 25 25 25 25 26 27 27 27 27 28
Wind_Direction
228 226 227 229 229 229 234 239 242 244 247 251 256 259 265 268 272 275 278 281 286 288 289 295 301 304 304 308 309 312 315 320 318 316 317 316 313 313 310 308 306 305 305 306
231 229 228 230 230 231 233 237 241 244 245 249 253 256 262 268 272 272 276 282 284 284 287 289 294 298 299 304 306 308 309 312 313 313 312 312 310 312 312 309 307 306 306 306
236 234 232 232 232 232 233 234 239 243 246 248 252 255 260 265 269 268 276 277 278 280 281 282 288 293 295 296 296 298 301 304 307 308 308 310 309 310 310 308 305 305 305 305
238 237 236 233 231 233 234 234 237 242 244 246 249 252 256 261 265 268 276 276 276 279 281 284 286 289 291 294 295 296 299 302 302 303 303 305 307 308 308 308 307 307 304 302
238 238 239 235 234 234 235 234 237 241 243 244 245 248 252 258 264 268 272 272 270 274 279 281 282 283 285 288 292 293 294 296 298 297 297 301 303 304 304 305 306 305 302 301
239 238 238 236 235 236 236 236 237 241 245 246 247 250 254 259 263 267 269 270 272 276 280 280 279 280 281 283 286 289 289 289 290 294 294 296 297 300 302 304 304 303 302 301
239 239 239 237 235 235 238 239 239 242 246 249 247 250 253 257 259 263 266 269 272 274 277 278 277 278 278 280 282 284 284 285 286 289 291 292 294 296 298 301 303 303 301 298
240 241 240 239 238 237 240 242 243 245 247 248 248 251 253 256 258 261 264 267 270 271 273 274 276 278 278 279 278 279 280 283 284 286 289 290 291 294 297 300 302 302 301 299
240 242 242 242 241 240 241 242 245 245 248 248 248 249 253 257 259 260 261 264 267 270 272 272 274 276 278 279 279 279 280 282 282 283 287 291 292 293 297 299 300 299 300 299
241 242 243 243 243 241 241 243 246 247 249 249 248 250 254 257 258 258 260 262 265 268 271 272 273 275 277 278 278 278 280 282 282 284 289 290 291 293 295 298 297 297 299 300
242 243 244 244 245 244 244 245 246 247 249 248 248 252 256 255 255 258 260 262 265 268 270 271 273 274 275 276 276 278 281 281 282 285 287 288 291 292 293 295 295 295 297 299
243 243 245 245 244 246 246 245 247 247 247 248 249 252 255 257 258 259 261 261 264 267 269 270 271 272 274 275 277 279 280 282 282 284 285 286 288 290 291 292 293 294 295 297
243 246 245 244 245 245 246 248 248 248 249 248 249 251 254 256 257 259 262 263 265 267 269 269 269 270 272 274 276 278 280 281 282 282 283 285 286 286 287 289 290 290 292 293
243 245 245 244 245 245 245 248 249 248 251 248 247 251 253 254 256 258 260 262 263 266 267 268 269 271 272 273 275 278 279 280 281 282 282 282 283 283 284 286 287 288 289 290
241 243 244 246 246 246 247 247 249 248 251 252 250 251 254 256 256 257 259 260 261 263 265 267 269 271 272 273 275 277 279 280 281 282 282 281 281 281 282 283 285 286 287 288
245 244 243 246 245 246 248 249 250 249 250 251 251 252 254 255 257 258 259 260 261 262 264 267 269 270 272 273 276 277 278 280 281 282 282 281 280 281 282 283 284 285 286 286
247 246 246 247 247 248 249 250 249 251 251 251 253 253 253 253 256 258 259 261 262 264 265 266 268 270 272 274 276 277 277 278 280 282 282 284 282 283 284 283 284 285 284 285
248 248 248 248 250 251 251 251 250 250 250 253 254 255 257 257 258 259 260 262 264 264 264 265 267 269 272 274 275 276 275 277 278 280 282 284 285 283 285 284 283 285 285 285
253 251 249 250 253 254 252 250 249 250 252 252 254 256 258 260 262 262 262 263 264 265 266 267 269 271 273 274 275 275 275 276 278 279 281 282 284 284 285 287 285 286 288 287
250 247 248 250 252 253 255 255 254 254 255 255 256 257 257 261 263 265 267 268 268 268 269 269 270 271 272 273 273 275 276 276 277 279 280 282 284 286 288 289 288 288 289 289
252 252 251 250 252 256 257 258 259 259 257 257 258 259 259 261 263 266 268 269 270 270 270 270 269 270 271 272 274 276 277 277 278 279 280 281 284 287 288 289 290 288 289 290
251 251 253 255 257 260 262 263 262 260 259 260 259 260 262 263 264 266 267 268 270 271 271 270 270 270 271 272 273 274 275 276 278 279 281 283 284 286 287 288 289 290 291 291
251 254 256 259 260 261 262 263 261 262 262 261 259 260 262 264 265 267 269 269 270 270 270 271 272 271 271 271 272 274 276 278 278 279 281 282 284 286 287 289 290 291 292 293
257 259 259 259 260 262 262 263 263 264 263 262 262 261 263 266 268 269 270 270 270 270 271 273 273 274 275 276 276 276 277 280 280 280 282 284 285 286 287 289 290 292 292 292
262 264 264 264 265 267 267 265 265 266 267 266 264 263 264 266 269 270 271 271 271 272 273 275 277 278 279 279 280 280 280 281 282 283 284 285 286 287 288 289 290 291 292 292
262 264 265 263 265 266 265 265 266 267 268 269 268 268 271 272 272 271 272 272 272 273 275 278 280 281 281 282 282 282 282 282 283 284 286 287 288 289 290 291 291 291 291 292
259 261 262 263 265 265 264 264 265 268 272 273 272 273 273 274 274 274 275 276 277 277 279 281 282 283 283 283 284 283 283 284 285 287 289 290 291 290 290 291 292 292 291 292
Height
5876 5880 5882 5885 5887 5889 5891 5892 5894 5895 5896 5899 5900 5902 5902 5903 5902 5903 5903 5903 5903 5903 5902 5901 5900 5898 5896 5895 5893 5892 5890 5888 5887 5885 5883 5882 5880 5878 5877 5875 5873 5871 5869 5867
5869 5873 5875 5878 5881 5883 5885 5886 5887 5888 5890 5893 5894 5896 5896 5897 5898 5898 5899 5899 5899 5899 5898 5897 5896 5894 5893 5892 5891 5889 5888 5886 5884 5882 5880 5878 5876 5874 5873 5871 5869 5867 5865 5863
5861 5865 5868 5870 5873 5876 5877 5879 5880 5882 5885 5886 5887 5889 5890 5892 5892 5893 5894 5894 5894 5894 5894 5892 5891 5890 5890 5888 5887 5885 5883 5882 5880 5878 5876 5874 5872 5870 5868 5867 5865 5863 5861 5858
5852 5857 5859 5865 5866 5868 5869 5872 5874 5875 5877 5879 5881 5883 5884 5886 5886 5886 5888 5889 5889 5888 5888 5887 5887 5886 5885 5884 5882 5881 5879 5877 5876 5874 5872 5870 5868 5866 5864 5862 5860 5858 5855 5853
5843 5846 5850 5855 5858 5860 5861 5864 5867 5868 5870 5872 5874 5876 5877 5879 5880 5881 5882 5883 5883 5882 5882 5881 5881 5880 5879 5879 5877 5876 5874 5873 5871 5869 5867 5865 5863 5861 5859 5857 5855 5852 5850 5847
5834 5837 5840 5847 5850 5851 5854 5856 5859 5861 5863 5865 5866 5868 5870 5872 5873 5874 5875 5876 5876 5876 5875 5875 5874 5874 5873 5872 5871 5870 5869 5867 5866 5864 5862 5860 5858 5856 5854 5851 5849 5846 5844 5841
5825 5827 5831 5837 5840 5843 5846 5848 5851 5853 5855 5856 5857 5860 5863 5864 5865 5866 5868 5868 5869 5869 5869 5868 5868 5867 5866 5865 5864 5864 5862 5860 5859 5857 5855 5854 5852 5850 5848 5845 5842 5840 5837 5835
5816 5819 5825 5827 5830 5834 5836 5839 5842 5844 5846 5848 5849 5852 5854 5855 5856 5857 5859 5860 5860 5860 5861 5860 5860 5859 5859 5858 5856 5855 5854 5853 5852 5850 5848 5847 5845 5843 5841 5839 5836 5834 5831 5829
5807 5811 5814 5817 5821 5825 5827 5830 5832 5835 5837 5839 5841 5843 5845 5846 5847 5849 5850 5851 5851 5852 5852 5852 5852 5852 5851 5850 5848 5847 5847 5845 5844 5843 5841 5839 5837 5836 5834 5832 5830 5827 5825 5823
5797 5800 5804 5808 5811 5814 5817 5820 5823 5826 5827 5829 5831 5833 5835 5836 5838 5839 5840 5841 5841 5842 5843 5843 5843 5843 5842 5841 5840 5839 5839 5837 5836 5835 5834 5832 5831 5828 5826 5824 5822 5821 5819 5816
5787 5791 5795 5798 5801 5805 5808 5810 5813 5816 5817 5818 5820 5823 5825 5826 5828 5829 5830 5831 5832 5832 5833 5834 5834 5833 5833 5832 5830 5830 5830 5829 5828 5827 5825 5823 5822 5820 5819 5817 5815 5813 5812 5809
5778 5782 5785 5788 5791 5795 5798 5801 5803 5805 5807 5808 5810 5813 5815 5817 5818 5819 5820 5820 5821 5822 5823 5823 5824 5824 5823 5823 5822 5822 5821 5820 5819 5818 5817 5816 5815 5812 5810 5809 5807 5805 5803 5802
5769 5772 5775 5778 5781 5785 5788 5790 5792 5793 5794 5796 5799 5802 5805 5806 5808 5809 5810 5810 5811 5812 5812 5813 5813 5814 5814 5813 5813 5812 5812 5810 5809 5809 5808 5807 5806 5804 5802 5801 5799 5797 5795 5793
5760 5762 5764 5767 5771 5775 5777 5779 5781 5782 5782 5784 5787 5791 5794 5796 5797 5798 5799 5800 5801 5802 5802 5803 5803 5803 5803 5803 5803 5802 5802 5801 5800 5799 5798 5797 5796 5794 5793 5791 5790 5788 5786 5784
5751 5753 5755 5759 5762 5765 5768 5769 5771 5772 5772 5773 5775 5780 5783 5784 5786 5787 5789 5789 5790 5791 5792 5793 5793 5793 5793 5793 5792 5792 5791 5791 5790 5789 5788 5786 5785 5784 5783 5781 5780 5778 5776 5774
5742 5744 5747 5749 5752 5756 5758 5760 5761 5763 5764 5766 5767 5770 5771 5773 5775 5776 5777 5778 5779 5780 5781 5782 5783 5783 5783 5783 5782 5782 5781 5781 5780 5779 5778 5776 5775 5773 5772 5771 5769 5767 5765 5763
5734 5736 5738 5741 5743 5746 5748 5749 5751 5753 5756 5757 5759 5760 5762 5763 5765 5766 5767 5768 5769 5770 5771 5772 5772 5772 5773 5772 5772 5772 5771 5771 5770 5769 5768 5766 5765 5763 5761 5760 5758 5756 5754 5752
5726 5727 5729 5733 5735 5736 5738 5739 5741 5744 5746 5748 5749 5751 5753 5754 5755 5756 5757 5758 5758 5759 5760 5761 5761 5762 5762 5762 5762 5761 5761 5761 5760 5759 5758 5756 5755 5753 5750 5749 5747 5745 5743 5741
5719 5721 5723 5724 5727 5728 5730 5732 5733 5735 5737 5739 5741 5742 5744 5745 5746 5747 5747 5748 5749 5749 5750 5751 5751 5751 5752 5752 5751 5751 5751 5750 5750 5749 5748 5746 5745 5743 5740 5738 5736 5735 5733 5731
5712 5714 5715 5717 5719 5721 5722 5724 5725 5727 5729 5730 5732 5733 5735 5736 5737 5738 5738 5739 5740 5740 5741 5741 5741 5741 5741 5741 5741 5741 5740 5740 5739 5739 5738 5736 5735 5733 5731 5728 5726 5725 5723 5720
5707 5708 5709 5711 5712 5714 5715 5716 5718 5719 5721 5722 5723 5725 5726 5727 5728 5729 5729 5730 5731 5731 5731 5731 5731 5731 5732 5732 5731 5731 5730 5730 5729 5728 5727 5726 5724 5722 5721 5719 5717 5714 5712 5710
5703 5704 5705 5706 5707 5708 5709 5710 5711 5712 5713 5714 5715 5716 5718 5719 5719 5720 5720 5721 5721 5721 5722 5722 5722 5722 5722 5722 5722 5721 5721 5720 5719 5718 5717 5715 5714 5712 5710 5708 5706 5704 5701 5699
5699 5699 5700 5701 5702 5703 5703 5704 5704 5705 5706 5707 5708 5709 5710 5711 5711 5712 5713 5713 5713 5713 5713 5713 5713 5712 5712 5712 5712 5711 5711 5709 5708 5707 5706 5705 5703 5702 5700 5698 5696 5694 5691 5689
5695 5695 5696 5697 5697 5698 5698 5699 5699 5700 5700 5701 5701 5702 5703 5703 5704 5704 5704 5704 5704 5705 5705 5705 5704 5704 5704 5703 5703 5702 5701 5700 5698 5698 5697 5695 5694 5692 5690 5689 5686 5684 5682 5679
5692 5692 5692 5693 5693 5693 5694 5694 5694 5695 5695 5695 5696 5696 5697 5697 5697 5697 5697 5697 5697 5697 5697 5697 5697 5696 5696 5695 5694 5693 5692 5691 5690 5689 5687 5686 5684 5683 5681 5679 5677 5674 5672 5669
5689 5689 5689 5689 5689 5689 5689 5689 5689 5689 5690 5690 5690 5690 5691 5691 5691 5691 5691 5691 5691 5691 5690 5690 5690 5689 5688 5687 5686 5685 5684 5682 5681 5680 5679 5677 5675 5673 5671 5669 5667 5665 5663 5661
5686 5686 5687 5687 5686 5686 5686 5686 5686 5686 5686 5686 5686 5686 5686 5686 5686 5686 5685 5685 5685 5684 5684 5683 5682 5682 5681 5679 5678 5677 5676 5675 5673 5672 5670 5668 5667 5665 5663 5661 5659 5657 5654 5652